Dewpoint
53 52 51 51 51 50 50 51 50 50 49 49 49 49 49 50 44 15 20 35 39 45 34 12 22 26 27 27 30 32 24 20 22 22 22 25 25 26 28 27 29 36 41 44 45
52 52 51 51 50 50 50 51 49 49 50 50 49 49 49 50 32 18 29 42 42 43 14 11 15 26 26 26 28 26 23 22 23 25 24 25 27 27 28 29 30 32 35 46 44
52 51 50 50 50 50 49 50 49 48 47 48 48 49 50 42 22 12 35 40 42 36 13 14 23 27 26 27 26 26 25 25 24 25 29 29 29 30 29 28 30 31 34 44 44
51 51 50 49 49 49 48 49 49 47 47 46 48 49 47 28 -10 9 37 40 40 20 14 22 26 27 27 26 28 25 27 27 28 28 29 30 31 29 29 28 30 33 39 44 43
51 50 50 49 49 48 48 49 48 47 47 47 48 48 20 4 4 9 37 29 15 15 13 17 26 28 26 28 29 28 28 29 30 31 31 31 31 32 30 34 33 33 40 44 43
50 50 50 49 48 48 48 49 48 47 47 47 48 44 9 -1 6 14 14 13 14 15 15 18 26 29 29 30 29 29 30 30 29 28 30 32 34 36 36 39 35 33 33 43 43
50 50 49 48 47 48 48 48 47 44 44 44 46 33 8 0 13 18 14 15 15 16 16 20 31 30 30 29 31 31 27 24 24 26 28 31 31 33 35 36 36 37 35 44 44
50 50 49 47 47 48 48 49 48 48 46 45 42 25 9 13 21 12 16 17 16 18 18 23 33 32 30 28 23 23 22 20 23 26 27 31 27 32 34 34 34 35 39 42 43
51 50 49 47 47 48 48 48 48 44 42 40 18 13 -3 16 9 12 17 16 16 20 26 26 27 25 23 22 19 20 16 19 22 25 28 32 30 34 32 33 32 33 34 36 40
51 50 49 46 47 47 45 45 39 27 18 18 10 1 0 6 12 13 18 18 17 17 27 21 20 17 17 19 15 17 16 18 21 23 30 28 27 31 31 32 32 32 33 34 35
50 49 48 46 46 45 35 23 18 9 12 5 8 3 5 10 10 13 19 16 14 14 13 18 17 14 14 17 21 20 19 19 22 25 29 27 26 30 32 29 30 32 32 32 33
49 48 47 45 45 42 33 28 31 22 8 10 8 10 11 10 9 12 20 14 14 12 14 15 13 14 18 21 21 21 20 18 22 23 25 27 26 29 30 30 31 31 30 31 31
49 47 46 45 41 35 34 34 37 34 15 10 9 9 8 9 9 12 19 19 15 15 16 13 13 17 18 19 20 20 20 19 20 22 29 32 25 22 28 28 26 27 29 31 30
48 45 46 43 30 32 31 36 38 31 19 5 6 7 8 11 6 15 20 20 18 15 18 15 15 16 17 15 18 20 21 21 23 24 23 27 16 20 23 23 21 24 27 28 29
46 43 41 34 25 23 30 36 37 32 10 6 7 13 10 11 13 11 21 21 18 16 13 11 14 15 16 16 17 19 21 22 26 26 22 18 17 17 18 17 20 22 25 27 28
43 42 38 28 27 29 36 34 31 24 5 6 9 12 6 9 13 17 18 22 21 14 14 14 16 16 15 17 18 21 21 20 23 20 6 19 17 12 17 20 20 22 24 26 28
42 39 31 26 17 32 36 31 22 15 4 2 4 11 10 9 11 14 13 16 14 3 5 12 11 14 17 16 19 19 13 4 7 6 8 20 13 9 20 22 23 23 25 27 28
45 36 32 28 33 33 32 26 6 9 5 10 11 8 5 9 9 11 14 13 17 11 3 9 0 12 15 18 17 19 15 3 -2 3 10 19 10 17 18 20 22 23 26 25 25
41 33 27 28 32 31 27 15 16 7 7 6 6 -1 -0 8 10 10 10 11 17 19 7 10 7 13 16 20 17 16 10 21 8 9 13 15 14 26 16 18 19 20 22 22 24
34 30 27 31 32 27 26 14 12 12 13 11 -1 8 -3 5 7 6 6 14 16 22 19 17 7 11 14 19 18 16 17 11 9 -2 -4 9 10 12 14 17 18 19 21 21 24
35 30 31 33 28 25 21 16 12 13 13 11 8 8 6 8 9 9 7 13 21 21 21 19 10 6 16 18 14 14 8 14 14 13 2 5 8 16 18 19 19 19 22 22 23
35 32 35 31 27 23 20 13 14 12 15 14 12 10 5 8 10 8 11 13 23 22 17 22 10 2 8 15 15 14 13 14 5 3 10 10 11 22 20 20 22 20 22 22 24
36 34 34 28 25 21 15 14 14 11 11 12 10 13 11 9 -2 9 10 20 23 22 21 15 0 -7 -3 6 11 15 13 14 14 13 3 2 11 20 18 18 20 21 22 21 23
36 31 32 31 28 20 15 11 13 16 12 13 11 13 11 10 10 6 10 17 21 22 24 21 11 -3 -2 -0 7 3 9 13 9 3 -0 4 9 12 15 16 18 19 21 21 22
36 31 26 28 26 20 18 16 11 10 13 13 11 9 8 -1 6 9 12 11 18 20 18 9 1 3 11 13 16 16 8 10 3 10 2 6 5 10 15 16 18 21 21 20 20
32 30 30 25 19 21 17 15 9 11 12 10 12 10 8 5 4 1 8 9 14 14 5 9 3 8 3 18 13 15 14 12 13 13 10 10 9 15 16 17 18 20 20 19 19
35 33 33 26 22 22 19 17 14 17 13 12 12 13 12 11 11 12 13 13 14 10 5 0 -0 -3 -5 8 2 3 2 9 12 9 10 7 10 15 15 16 17 20 19 19 20
Lifted_Index
14 15 15 15 15 15 15 15 15 15 15 14 14 14 14 15 16 17 18 17 17 17 18 19 19 18 17 16 15 14 12 9 8 7 6 5 5 6 7 7 7 5 4 3 3
14 15 15 16 16 15 15 14 15 15 15 14 14 14 14 15 16 17 18 18 18 18 18 19 18 17 16 16 14 13 11 9 7 7 6 5 4 5 6 7 6 6 4 4 4
15 15 15 16 16 15 15 14 14 15 15 14 14 14 15 15 16 17 19 19 19 19 19 19 18 17 16 15 13 11 9 8 7 6 4 3 3 4 5 6 6 6 5 4 5
15 15 15 16 16 16 15 14 14 14 15 15 14 15 16 15 15 17 20 19 19 19 19 18 17 16 15 14 12 9 8 7 6 4 3 2 3 4 4 5 6 6 5 5 5
15 15 15 15 16 15 15 14 14 14 14 14 15 15 16 15 16 19 20 20 19 18 17 16 15 15 14 13 10 8 7 6 5 3 2 2 2 3 4 4 5 6 6 6 6
15 15 15 15 15 15 15 14 14 14 14 15 15 16 16 15 18 20 20 19 18 17 16 15 15 14 13 11 9 8 7 6 4 2 1 1 2 2 3 4 4 5 6 6 6
15 15 15 15 15 15 14 14 14 14 14 15 15 16 16 17 19 20 20 18 17 17 16 15 15 14 13 10 8 7 6 5 3 2 1 1 1 2 2 3 3 4 5 6 6
14 14 15 15 15 14 14 13 13 14 14 15 16 16 16 18 20 20 19 18 17 17 16 15 15 14 12 10 7 7 6 4 3 2 1 1 1 2 2 2 3 3 4 5 6
14 14 15 15 15 15 14 14 14 15 15 16 17 16 15 17 19 19 19 18 17 16 15 15 15 14 12 9 6 5 4 3 2 2 2 1 2 2 2 2 2 3 4 5 5
14 14 15 15 15 15 15 15 15 16 16 16 16 15 15 17 18 19 19 18 17 15 15 14 14 13 11 8 6 4 3 3 2 2 2 2 1 2 2 2 2 3 4 4 5
13 14 14 15 16 16 16 15 14 14 14 14 14 15 16 17 17 17 18 17 16 14 14 14 13 12 10 8 6 4 3 3 3 3 2 2 2 2 3 3 2 2 3 3 4
13 14 15 15 16 16 16 14 14 14 13 13 14 15 17 17 16 16 17 16 14 13 13 13 12 12 10 8 6 4 3 3 3 3 2 2 2 2 3 4 4 3 3 3 3
13 14 15 16 16 15 15 15 16 14 12 12 14 15 16 16 15 16 17 16 13 12 12 12 12 12 10 7 5 4 3 3 3 2 2 1 2 2 3 4 4 4 3 3 3
14 15 16 16 15 14 14 16 16 14 9 9 12 14 16 16 15 17 18 16 14 12 12 12 13 12 10 7 5 4 3 3 2 1 1 2 1 2 3 3 3 4 4 3 3
15 16 17 16 14 14 15 16 16 11 6 7 11 14 15 14 15 16 17 16 14 13 13 13 13 12 10 8 6 4 3 3 2 1 2 2 2 2 2 2 3 4 4 4 4
16 16 17 16 15 15 16 15 13 8 5 6 9 11 12 12 13 15 15 15 13 12 12 13 13 12 10 8 6 4 3 2 1 1 2 2 2 2 3 4 5 5 5 5 4
16 16 17 16 15 15 15 12 8 5 5 6 8 8 9 10 11 12 13 12 11 10 11 11 12 12 10 8 6 4 3 2 1 1 1 2 3 3 5 6 7 7 7 6 6
16 16 17 17 16 15 13 9 5 5 6 7 7 7 8 9 10 11 11 11 11 11 10 9 10 11 10 8 6 5 3 2 1 1 1 2 3 4 7 8 8 8 7 7 6
13 13 14 17 17 15 11 7 5 6 7 7 7 6 7 8 10 10 11 11 13 14 12 10 10 11 10 8 7 5 4 3 2 1 1 2 3 4 6 7 8 8 7 7 6
9 9 12 16 17 13 9 6 7 8 9 8 6 6 7 8 9 10 11 12 14 15 15 12 11 11 10 8 7 6 4 3 3 2 1 1 2 3 5 6 7 7 7 7 7
6 7 12 16 15 11 8 7 8 10 10 9 7 7 7 8 9 9 11 13 15 16 16 14 12 10 9 8 7 6 5 3 3 2 1 1 2 5 6 7 8 8 8 8 8
5 7 11 13 11 8 7 8 9 10 10 10 9 9 9 9 9 10 11 14 16 16 15 14 12 9 8 8 7 6 5 4 3 2 2 2 3 6 8 8 8 9 9 10 10
5 6 9 10 8 7 7 8 9 10 10 10 10 10 10 9 9 10 12 14 16 16 16 15 12 8 6 7 7 6 6 5 4 3 2 2 4 6 7 8 8 9 10 10 10
4 5 6 7 7 7 7 7 8 9 10 10 10 10 10 10 10 11 12 14 16 17 17 15 12 8 6 6 7 6 6 5 4 3 3 3 4 5 6 7 8 9 9 10 10
4 4 5 5 6 7 7 7 7 8 10 10 10 10 10 10 10 11 12 13 15 16 17 15 11 9 7 7 7 7 6 5 5 4 3 3 4 6 7 7 8 9 9 10 10
4 4 4 4 5 6 7 7 7 9 10 10 10 10 10 10 11 12 13 13 14 15 15 14 11 8 7 7 6 6 6 6 5 5 4 4 5 7 8 8 8 9 9 10 10
5 5 4 4 4 5 6 7 8 10 11 10 10 10 11 12 13 14 14 14 14 14 14 13 11 8 6 6 6 5 5 5 5 5 4 4 5 7 8 8 8 8 9 10 10